,,Stat6,,Stat2,,Stat8,,Stat9,,Stat10,,Wind1,,Wind1,
time,status,PA1M_AVG,status,PR1M_SUM,status,RH1M_AVG,status,SR1M_AVG,status,TA1M_AVG,status,W1dAve1m,status,W1sAve1m,
2008-09-20, 00:00:00,VALID,918.634,VALID,0,VALID,100,VALID,-0.101885,VALID,21.0772,VALID,9,VALID,0,
2008-09-20, 00:01:00,VALID,918.606,VALID,0,VALID,100,VALID,-0.0679233,VALID,21.1093,VALID,32,VALID,0,
2008-09-20, 00:02:00,VALID,918.595,VALID,0,VALID,100,VALID,-0.0849042,VALID,21.1126,VALID,32,VALID,0,
2008-09-20, 00:03:00,VALID,918.585,VALID,0,VALID,100,VALID,-0.0339617,VALID,21.0993,VALID,32,VALID,0,
2008-09-20, 00:04:00,VALID,918.586,VALID,0,VALID,100,VALID,-0.0679233,VALID,21.0996,VALID,32,VALID,0,
2008-09-20, 00:05:00,VALID,918.592,VALID,0,VALID,100,VALID,-0.101885,VALID,21.0507,VALID,32,VALID,0,
2008-09-20, 00:06:00,VALID,918.58,VALID,0,VALID,100,VALID,-0.101885,VALID,21.0309,VALID,32,VALID,0,
2008-09-20, 00:07:00,VALID,918.583,VALID,0,VALID,100,VALID,-0.0849042,VALID,21.0382,VALID,32,VALID,0,
2008-09-20, 00:08:00,VALID,918.568,VALID,0,VALID,100,VALID,-0.0679233,VALID,21.0057,VALID,32,VALID,0,
2008-09-20, 00:09:00,VALID,918.572,VALID,0,VALID,100,VALID,-0.101885,VALID,20.9763,VALID,32,VALID,0,
2008-09-20, 00:10:00,VALID,918.546,VALID,0,VALID,100,VALID,-0.118866,VALID,20.9898,VALID,32,VALID,0,
2008-09-20, 00:11:00,VALID,918.529,VALID,0,VALID,100,VALID,-0.101885,VALID,20.9698,VALID,32,VALID,0,
2008-09-20, 00:12:00,VALID,918.511,VALID,0,VALID,100,VALID,-0.0849042,VALID,20.9368,VALID,32,VALID,0,
2008-09-20, 00:13:00,VALID,918.486,VALID,0,VALID,100,VALID,-0.0679233,VALID,20.9308,VALID,32,VALID,0,
2008-09-20, 00:14:00,VALID,918.469,VALID,0,VALID,100,VALID,-0.0849042,VALID,20.9405,VALID,32,VALID,0,
2008-09-20, 00:15:00,VALID,918.456,VALID,0,VALID,100,VALID,-0.0849042,VALID,20.9016,VALID,32,VALID,0,
2008-09-20, 00:16:00,VALID,918.455,VALID,0,VALID,100,VALID,-0.0679233,VALID,20.8816,VALID,32,VALID,0.0449219,
2008-09-20, 00:17:00,VALID,918.458,VALID,0,VALID,100,VALID,-0.0849042,VALID,20.9081,VALID,32,VALID,0.109375,
2008-09-20, 00:18:00,VALID,918.469,VALID,0,VALID,100,VALID,-0.0849042,VALID,20.9305,VALID,33,VALID,0.00613839,
2008-09-20, 00:19:00,VALID,918.479,VALID,0,VALID,100,VALID,-0.101885,VALID,20.9635,VALID,33,VALID,0.369727,
2008-09-20, 00:20:00,VALID,918.477,VALID,0,VALID,100,VALID,-0.0679233,VALID,20.9698,VALID,32,VALID,0.0671503,
2008-09-20, 00:21:00,VALID,918.475,VALID,0,VALID,100,VALID,-0.0679233,VALID,20.9663,VALID,26,VALID,0.649639,
2008-09-20, 00:22:00,VALID,918.483,VALID,0,VALID,100,VALID,-0.0509425,VALID,20.9498,VALID,6,VALID,0.602307,
2008-09-20, 00:23:00,VALID,918.484,VALID,0,VALID,100,VALID,-0.0509425,VALID,20.9763,VALID,354,VALID,0.380664,
2008-09-20, 00:24:00,VALID,918.467,VALID,0,VALID,100,VALID,-0.0509425,VALID,20.9827,VALID,355,VALID,0.00486111,
2008-09-20, 00:25:00,VALID,918.474,VALID,0,VALID,100,VALID,-0.0849042,VALID,20.976,VALID,351,VALID,0,
2008-09-20, 00:26:00,VALID,918.472,VALID,0,VALID,100,VALID,-0.0679233,VALID,20.996,VALID,351,VALID,0,
2008-09-20, 00:27:00,VALID,918.479,VALID,0,VALID,100,VALID,-0.0169808,VALID,20.9922,VALID,351,VALID,0,
2008-09-20, 00:28:00,VALID,918.489,VALID,0,VALID,100,VALID,-0.0339617,VALID,21.0152,VALID,6,VALID,0,
2008-09-20, 00:29:00,VALID,918.492,VALID,0,VALID,100,VALID,-0.0509425,VALID,21.0274,VALID,6,VALID,0,
2008-09-20, 00:30:00,VALID,918.504,VALID,0,VALID,100,VALID,-0.0509425,VALID,21.0217,VALID,13,VALID,0,
2008-09-20, 00:31:00,VALID,918.5,VALID,0,VALID,100,VALID,-0.0679233,VALID,20.9827,VALID,2,VALID,0.368229,
2008-09-20, 00:32:00,VALID,918.5,VALID,0,VALID,100,VALID,-0.0679233,VALID,20.9827,VALID,21,VALID,0.362109,
2008-09-20, 00:33:00,VALID,918.498,VALID,0,VALID,100,VALID,-0.0509425,VALID,20.9825,VALID,21,VALID,0,
2008-09-20, 00:34:00,VALID,918.478,VALID,0,VALID,100,VALID,-0.0849042,VALID,20.9957,VALID,21,VALID,0,
2008-09-20, 00:35:00,VALID,918.457,VALID,0,VALID,100,VALID,-0.101885,VALID,21.0122,VALID,21,VALID,0,
2008-09-20, 00:36:00,VALID,918.439,VALID,0,VALID,100,VALID,-0.101885,VALID,21.0155,VALID,21,VALID,0,
2008-09-20, 00:37:00,VALID,918.424,VALID,0,VALID,100,VALID,-0.101885,VALID,21.022,VALID,21,VALID,0,
2008-09-20, 00:38:00,VALID,918.41,VALID,0,VALID,100,VALID,-0.135847,VALID,20.9992,VALID,21,VALID,0,
2008-09-20, 00:39:00,VALID,918.393,VALID,0,VALID,100,VALID,-0.118866,VALID,21.0057,VALID,21,VALID,0,
2008-09-20, 00:40:00,VALID,918.375,VALID,0,VALID,100,VALID,-0.101885,VALID,21.0217,VALID,21,VALID,0,
2008-09-20, 00:41:00,VALID,918.343,VALID,0,VALID,100,VALID,-0.0849042,VALID,21.0282,VALID,21,VALID,0,
2008-09-20, 00:42:00,VALID,918.326,VALID,0,VALID,100,VALID,-0.0849042,VALID,21.0255,VALID,21,VALID,0,
2008-09-20, 00:43:00,VALID,918.293,VALID,0,VALID,100,VALID,-0.101885,VALID,21.0222,VALID,21,VALID,0,
2008-09-20, 00:44:00,VALID,918.257,VALID,0,VALID,100,VALID,-0.101885,VALID,21.0255,VALID,21,VALID,0,
2008-09-20, 00:45:00,VALID,918.225,VALID,0,VALID,100,VALID,-0.101885,VALID,21.0252,VALID,21,VALID,0,
2008-09-20, 00:46:01,VALID,918.192,VALID,0,VALID,100,VALID,-0.118866,VALID,21.0287,VALID,21,VALID,0,
2008-09-20, 00:47:00,VALID,918.161,VALID,0,VALID,100,VALID,-0.118866,VALID,21.0249,VALID,21,VALID,0,
2008-09-20, 00:48:00,VALID,918.142,VALID,0,VALID,100,VALID,-0.101885,VALID,21.0187,VALID,21,VALID,0,
2008-09-20, 00:49:00,VALID,918.126,VALID,0,VALID,100,VALID,-0.101885,VALID,21.0082,VALID,21,VALID,0,
2008-09-20, 00:50:00,VALID,918.119,VALID,0,VALID,100,VALID,-0.0849042,VALID,21.0217,VALID,21,VALID,0,
2008-09-20, 00:51:00,VALID,918.105,VALID,0,VALID,100,VALID,-0.101885,VALID,21.0249,VALID,21,VALID,0,
2008-09-20, 00:52:00,VALID,918.088,VALID,0,VALID,100,VALID,-0.0679233,VALID,21.0022,VALID,21,VALID,0,
2008-09-20, 00:53:01,VALID,918.074,VALID,0,VALID,100,VALID,-0.101885,VALID,20.9827,VALID,21,VALID,0,
2008-09-20, 00:54:00,VALID,918.071,VALID,0,VALID,100,VALID,-0.0339617,VALID,20.9565,VALID,21,VALID,0,
2008-09-20, 00:55:00,VALID,918.06,VALID,0,VALID,100,VALID,-0.0679233,VALID,20.9373,VALID,21,VALID,0,
2008-09-20, 00:56:01,VALID,918.061,VALID,0,VALID,100,VALID,-0.101885,VALID,20.9078,VALID,21,VALID,0,
2008-09-20, 00:57:00,VALID,918.064,VALID,0,VALID,100,VALID,-0.0509425,VALID,20.8559,VALID,21,VALID,0,
2008-09-20, 00:58:00,VALID,918.045,VALID,0,VALID,100,VALID,-0.101885,VALID,20.8272,VALID,21,VALID,0,
2008-09-20, 00:59:00,VALID,918.022,VALID,0,VALID,100,VALID,-0.101885,VALID,20.811,VALID,21,VALID,0,
2008-09-20, 01:00:01,VALID,918.012,VALID,0,VALID,100,VALID,-0.101885,VALID,20.7815,VALID,21,VALID,0,
2008-09-20, 01:01:01,VALID,917.998,VALID,0,VALID,100,VALID,-0.101885,VALID,20.762,VALID,21,VALID,0,
2008-09-20, 01:02:00,VALID,917.982,VALID,0,VALID,100,VALID,-0.0849042,VALID,20.7393,VALID,21,VALID,0,
2008-09-20, 01:03:00,VALID,917.968,VALID,0,VALID,100,VALID,-0.0849042,VALID,20.7361,VALID,21,VALID,0,
2008-09-20, 01:04:00,VALID,917.945,VALID,0,VALID,100,VALID,-0.101885,VALID,20.7196,VALID,21,VALID,0,
2008-09-20, 01:05:00,VALID,917.908,VALID,0,VALID,100,VALID,-0.101885,VALID,20.7204,VALID,19,VALID,0,
2008-09-20, 01:06:00,VALID,917.869,VALID,0,VALID,100,VALID,-0.118866,VALID,20.7201,VALID,15,VALID,0,
2008-09-20, 01:07:00,VALID,917.841,VALID,0,VALID,100,VALID,-0.118866,VALID,20.7133,VALID,15,VALID,0,
2008-09-20, 01:08:01,VALID,917.819,VALID,0,VALID,100,VALID,-0.0679233,VALID,20.7198,VALID,15,VALID,0,
2008-09-20, 01:09:00,VALID,917.818,VALID,0,VALID,100,VALID,-0.101885,VALID,20.7263,VALID,15,VALID,0,
2008-09-20, 01:10:00,VALID,917.823,VALID,0,VALID,100,VALID,-0.101885,VALID,20.7231,VALID,15,VALID,0,
2008-09-20, 01:11:01,VALID,917.852,VALID,0,VALID,100,VALID,-0.101885,VALID,20.7101,VALID,15,VALID,0,
2008-09-20, 01:12:01,VALID,917.863,VALID,0,VALID,100,VALID,-0.101885,VALID,20.6809,VALID,286,VALID,0,
2008-09-20, 01:13:00,VALID,917.89,VALID,0,VALID,100,VALID,-0.101885,VALID,20.6839,VALID,262,VALID,0,
2008-09-20, 01:14:00,VALID,917.915,VALID,0,VALID,100,VALID,-0.0509425,VALID,20.6774,VALID,262,VALID,0,
2008-09-20, 01:15:00,VALID,917.912,VALID,0,VALID,100,VALID,-0.101885,VALID,20.6646,VALID,262,VALID,0,
2008-09-20, 01:16:00,VALID,917.917,VALID,0,VALID,100,VALID,-0.101885,VALID,20.6092,VALID,262,VALID,0,
2008-09-20, 01:17:00,VALID,917.925,VALID,0,VALID,100,VALID,-0.0849042,VALID,20.5543,VALID,262,VALID,0,
2008-09-20, 01:18:00,VALID,917.912,VALID,0,VALID,100,VALID,-0.101885,VALID,20.5251,VALID,262,VALID,0,
2008-09-20, 01:19:00,VALID,917.914,VALID,0,VALID,100,VALID,-0.0679233,VALID,20.5113,VALID,262,VALID,0,
2008-09-20, 01:20:00,VALID,917.921,VALID,0,VALID,100,VALID,-0.0849042,VALID,20.4926,VALID,262,VALID,0,
2008-09-20, 01:21:00,VALID,917.904,VALID,0,VALID,100,VALID,-0.101885,VALID,20.4791,VALID,262,VALID,0,
2008-09-20, 01:22:00,VALID,917.898,VALID,0,VALID,100,VALID,-0.118866,VALID,20.4602,VALID,262,VALID,0,
2008-09-20, 01:23:00,VALID,917.909,VALID,0,VALID,100,VALID,-0.0849042,VALID,20.3983,VALID,262,VALID,0,
2008-09-20, 01:24:00,VALID,917.91,VALID,0,VALID,100,VALID,-0.118866,VALID,20.4012,VALID,262,VALID,0,
2008-09-20, 01:25:01,VALID,917.909,VALID,0,VALID,100,VALID,-0.0849042,VALID,20.3393,VALID,262,VALID,0,
2008-09-20, 01:26:00,VALID,917.904,VALID,0,VALID,100,VALID,-0.0679233,VALID,20.2487,VALID,262,VALID,0,
2008-09-20, 01:27:00,VALID,917.899,VALID,0,VALID,100,VALID,-0.0509425,VALID,20.1905,VALID,262,VALID,0,
2008-09-20, 01:28:00,VALID,917.887,VALID,0,VALID,100,VALID,-0.0509425,VALID,20.1643,VALID,262,VALID,0,
2008-09-20, 01:29:00,VALID,917.872,VALID,0,VALID,100,VALID,-0.0849042,VALID,20.1543,VALID,262,VALID,0,
2008-09-20, 01:30:01,VALID,917.863,VALID,0,VALID,100,VALID,-0.101885,VALID,20.1291,VALID,262,VALID,0,
2008-09-20, 01:31:00,VALID,917.87,VALID,0,VALID,100,VALID,-0.0679233,VALID,20.1064,VALID,262,VALID,0,
2008-09-20, 01:32:00,VALID,917.882,VALID,0,VALID,100,VALID,-0.0849042,VALID,20.0897,VALID,262,VALID,0,
2008-09-20, 01:33:01,VALID,917.868,VALID,0,VALID,100,VALID,-0.0849042,VALID,20.0762,VALID,262,VALID,0,
2008-09-20, 01:34:01,VALID,917.89,VALID,0,VALID,100,VALID,0.0339617,VALID,20.0954,VALID,262,VALID,0,
2008-09-20, 01:35:01,VALID,917.905,VALID,0,VALID,100,VALID,0.0509425,VALID,20.0879,VALID,262,VALID,0,
2008-09-20, 01:36:01,VALID,917.913,VALID,0,VALID,100,VALID,0.0169808,VALID,20.0844,VALID,262,VALID,0,
2008-09-20, 01:37:01,VALID,917.92,VALID,0,VALID,100,VALID,0.0339617,VALID,20.1111,VALID,262,VALID,0,
2008-09-20, 01:38:00,VALID,917.922,VALID,0,VALID,100,VALID,0.0169808,VALID,20.0914,VALID,262,VALID,0,
2008-09-20, 01:39:00,VALID,917.92,VALID,0,VALID,100,VALID,0,VALID,20.0235,VALID,262,VALID,0,
2008-09-20, 01:40:01,VALID,917.929,VALID,0,VALID,100,VALID,0,VALID,19.9966,VALID,276,VALID,0,
2008-09-20, 01:41:01,VALID,917.911,VALID,0,VALID,100,VALID,0.0169808,VALID,19.9941,VALID,277,VALID,0,
2008-09-20, 01:42:01,VALID,917.895,VALID,0,VALID,100,VALID,0.0339617,VALID,20.0395,VALID,277,VALID,0,
2008-09-20, 01:43:01,VALID,917.879,VALID,0,VALID,100,VALID,0.0169808,VALID,20.0495,VALID,277,VALID,0,
2008-09-20, 01:44:01,VALID,917.866,VALID,0,VALID,100,VALID,0.0169808,VALID,20.0662,VALID,277,VALID,0,
2008-09-20, 01:45:01,VALID,917.855,VALID,0,VALID,100,VALID,-0.0169808,VALID,20.046,VALID,277,VALID,0,
2008-09-20, 01:46:01,VALID,917.848,VALID,0,VALID,100,VALID,0,VALID,20.0852,VALID,291,VALID,0.137355,
2008-09-20, 01:47:01,VALID,917.848,VALID,0,VALID,100,VALID,0,VALID,20.1433,VALID,350,VALID,0.0342685,
2008-09-20, 01:48:01,VALID,917.834,VALID,0,VALID,100,VALID,0,VALID,20.1793,VALID,353,VALID,0,
2008-09-20, 01:49:00,VALID,917.831,VALID,0,VALID,100,VALID,0.0509425,VALID,20.1795,VALID,353,VALID,0,
2008-09-20, 01:50:00,VALID,917.842,VALID,0,VALID,100,VALID,0,VALID,20.169,VALID,353,VALID,0,
2008-09-20, 01:51:00,VALID,917.825,VALID,0,VALID,100,VALID,0,VALID,20.1366,VALID,356,VALID,0,
2008-09-20, 01:52:00,VALID,917.816,VALID,0,VALID,100,VALID,0,VALID,20.1266,VALID,357,VALID,0,
2008-09-20, 01:53:00,VALID,917.801,VALID,0,VALID,100,VALID,0.0169808,VALID,20.1466,VALID,357,VALID,0,
2008-09-20, 01:54:00,VALID,917.795,VALID,0,VALID,100,VALID,0,VALID,20.1628,VALID,357,VALID,0,
2008-09-20, 01:55:00,VALID,917.791,VALID,0,VALID,100,VALID,0,VALID,20.1653,VALID,357,VALID,0,
2008-09-20, 01:56:00,VALID,917.812,VALID,0,VALID,100,VALID,0,VALID,20.176,VALID,357,VALID,0,
2008-09-20, 01:57:00,VALID,917.824,VALID,0,VALID,100,VALID,0,VALID,20.1625,VALID,357,VALID,0,
2008-09-20, 01:58:00,VALID,917.86,VALID,0,VALID,100,VALID,0,VALID,20.1468,VALID,357,VALID,0,
2008-09-20, 01:59:00,VALID,917.897,VALID,0,VALID,100,VALID,0.0339617,VALID,20.1366,VALID,347,VALID,0.133345,
2008-09-20, 02:00:00,VALID,917.921,VALID,0,VALID,100,VALID,-0.0169808,VALID,20.1139,VALID,184,VALID,0.181836,
2008-09-20, 02:01:00,VALID,917.931,VALID,0,VALID,100,VALID,0.0339617,VALID,20.1036,VALID,184,VALID,0.597751,
2008-09-20, 02:02:00,VALID,917.935,VALID,0,VALID,100,VALID,0.0169808,VALID,20.1136,VALID,184,VALID,0.0390625,
2008-09-20, 02:03:00,VALID,917.925,VALID,0,VALID,100,VALID,-0.0169808,VALID,20.1209,VALID,184,VALID,0,
2008-09-20, 02:04:00,VALID,917.923,VALID,0,VALID,100,VALID,0.0169808,VALID,20.0914,VALID,184,VALID,0,
2008-09-20, 02:05:00,VALID,917.92,VALID,0,VALID,100,VALID,0.0339617,VALID,20.0515,VALID,183,VALID,0,
2008-09-20, 02:06:00,VALID,917.923,VALID,0,VALID,100,VALID,0.0339617,VALID,20.0649,VALID,181,VALID,0,
2008-09-20, 02:07:00,VALID,917.931,VALID,0,VALID,100,VALID,0,VALID,20.0844,VALID,168,VALID,0,
2008-09-20, 02:08:00,VALID,917.916,VALID,0,VALID,100,VALID,0.0169808,VALID,20.1039,VALID,167,VALID,0.442935,
2008-09-20, 02:09:00,VALID,917.887,VALID,0,VALID,100,VALID,0.0169808,VALID,20.1139,VALID,167,VALID,0.571948,
2008-09-20, 02:10:00,VALID,917.868,VALID,0,VALID,100,VALID,0,VALID,20.1239,VALID,170,VALID,0.506098,
2008-09-20, 02:11:00,VALID,917.848,VALID,0,VALID,100,VALID,0.0169808,VALID,20.1468,VALID,167,VALID,0.627734,
2008-09-20, 02:12:00,VALID,917.834,VALID,0,VALID,100,VALID,0,VALID,20.1628,VALID,167,VALID,0,
2008-09-20, 02:13:00,VALID,917.833,VALID,0,VALID,100,VALID,0.0169808,VALID,20.1793,VALID,167,VALID,0,
2008-09-20, 02:14:00,VALID,917.815,VALID,0,VALID,100,VALID,0,VALID,20.1723,VALID,171,VALID,0,
2008-09-20, 02:15:00,VALID,917.806,VALID,0,VALID,100,VALID,0,VALID,20.1958,VALID,178,VALID,0,
2008-09-20, 02:16:00,VALID,917.794,VALID,0,VALID,100,VALID,0,VALID,20.1955,VALID,178,VALID,0,
2008-09-20, 02:17:00,VALID,917.782,VALID,0,VALID,100,VALID,-0.0169808,VALID,20.2055,VALID,178,VALID,0,
2008-09-20, 02:18:00,VALID,917.769,VALID,0,VALID,100,VALID,-0.0169808,VALID,20.2277,VALID,178,VALID,0,
2008-09-20, 02:19:00,VALID,917.754,VALID,0,VALID,100,VALID,0.0169808,VALID,20.2274,VALID,178,VALID,0,
2008-09-20, 02:20:00,VALID,917.761,VALID,0,VALID,100,VALID,0.0509425,VALID,20.2337,VALID,178,VALID,0,
2008-09-20, 02:21:00,VALID,917.758,VALID,0,VALID,100,VALID,0.0679233,VALID,20.2307,VALID,178,VALID,0,
2008-09-20, 02:22:00,VALID,917.744,VALID,0,VALID,100,VALID,0.0509425,VALID,20.2239,VALID,178,VALID,0,
2008-09-20, 02:23:00,VALID,917.727,VALID,0,VALID,100,VALID,0.0509425,VALID,20.1812,VALID,178,VALID,0,
2008-09-20, 02:24:00,VALID,917.698,VALID,0,VALID,100,VALID,0.0339617,VALID,20.1331,VALID,178,VALID,0,
2008-09-20, 02:25:00,VALID,917.682,VALID,0,VALID,100,VALID,0.0169808,VALID,20.0812,VALID,178,VALID,0,
2008-09-20, 02:26:00,VALID,917.666,VALID,0,VALID,100,VALID,0.0339617,VALID,20.1009,VALID,178,VALID,0,
2008-09-20, 02:27:00,VALID,917.616,VALID,0,VALID,100,VALID,0.0509425,VALID,20.1166,VALID,166,VALID,0,
2008-09-20, 02:28:00,VALID,917.604,VALID,0,VALID,100,VALID,0.0679233,VALID,20.1069,VALID,142,VALID,0.14444,
2008-09-20, 02:29:00,VALID,917.567,VALID,0,VALID,100,VALID,0.0509425,VALID,20.1261,VALID,139,VALID,0,
2008-09-20, 02:30:00,VALID,917.543,VALID,0,VALID,100,VALID,0.0679233,VALID,20.1228,VALID,136,VALID,0,
2008-09-20, 02:31:00,VALID,917.517,VALID,0,VALID,100,VALID,0.101885,VALID,20.1226,VALID,126,VALID,0,
2008-09-20, 02:32:00,VALID,917.492,VALID,0,VALID,100,VALID,0.0679233,VALID,20.1261,VALID,105,VALID,0,
2008-09-20, 02:33:00,VALID,917.488,VALID,0,VALID,100,VALID,0.0849042,VALID,20.1006,VALID,103,VALID,0,
2008-09-20, 02:34:00,VALID,917.479,VALID,0,VALID,100,VALID,0.0679233,VALID,20.0777,VALID,100,VALID,0.185096,
2008-09-20, 02:35:00,VALID,917.483,VALID,0,VALID,100,VALID,0.0169808,VALID,20.055,VALID,105,VALID,0.153299,
2008-09-20, 02:36:00,VALID,917.482,VALID,0,VALID,100,VALID,0.0169808,VALID,20.0455,VALID,105,VALID,0,
2008-09-20, 02:37:00,VALID,917.471,VALID,0,VALID,100,VALID,0.0339617,VALID,20.0357,VALID,105,VALID,0.0265625,
2008-09-20, 02:38:00,VALID,917.48,VALID,0,VALID,100,VALID,0.0339617,VALID,20.019,VALID,105,VALID,0,
2008-09-20, 02:39:00,VALID,917.478,VALID,0,VALID,100,VALID,0.0339617,VALID,20.0063,VALID,105,VALID,0,
2008-09-20, 02:40:00,VALID,917.477,VALID,0,VALID,100,VALID,0.0849042,VALID,19.9833,VALID,105,VALID,0,
2008-09-20, 02:41:00,VALID,917.455,VALID,0,VALID,100,VALID,0.0849042,VALID,19.9898,VALID,113,VALID,0,
2008-09-20, 02:42:00,VALID,917.466,VALID,0,VALID,100,VALID,0.0849042,VALID,19.9768,VALID,129,VALID,0,
2008-09-20, 02:43:00,VALID,917.445,VALID,0,VALID,100,VALID,0.0679233,VALID,19.9736,VALID,130,VALID,0,
2008-09-20, 02:44:00,VALID,917.429,VALID,0,VALID,100,VALID,0.0509425,VALID,19.9966,VALID,133,VALID,0.316692,
2008-09-20, 02:45:00,VALID,917.412,VALID,0,VALID,100,VALID,0.0339617,VALID,19.9931,VALID,139,VALID,0,
2008-09-20, 02:46:00,VALID,917.395,VALID,0,VALID,100,VALID,0.0169808,VALID,19.9871,VALID,139,VALID,0,
2008-09-20, 02:47:00,VALID,917.378,VALID,0,VALID,100,VALID,0.0169808,VALID,19.9741,VALID,139,VALID,0,
2008-09-20, 02:48:00,VALID,917.361,VALID,0,VALID,100,VALID,0.0169808,VALID,19.9838,VALID,139,VALID,0,
2008-09-20, 02:49:00,VALID,917.346,VALID,0,VALID,100,VALID,-0.0339617,VALID,19.9749,VALID,139,VALID,0,
2008-09-20, 02:50:00,VALID,917.33,VALID,0,VALID,100,VALID,-0.0509425,VALID,19.9856,VALID,139,VALID,0,
2008-09-20, 02:51:00,VALID,917.324,VALID,0,VALID,100,VALID,-0.0339617,VALID,19.9816,VALID,139,VALID,0,
2008-09-20, 02:52:00,VALID,917.317,VALID,0,VALID,100,VALID,-0.0339617,VALID,19.9786,VALID,139,VALID,0,
2008-09-20, 02:53:00,VALID,917.3,VALID,0,VALID,100,VALID,-0.0509425,VALID,19.9531,VALID,139,VALID,0,
2008-09-20, 02:54:00,VALID,917.276,VALID,0,VALID,100,VALID,-0.0169808,VALID,19.9167,VALID,139,VALID,0,
2008-09-20, 02:55:00,VALID,917.282,VALID,0,VALID,100,VALID,-0.0679233,VALID,19.9204,VALID,139,VALID,0,
2008-09-20, 02:56:00,VALID,917.271,VALID,0,VALID,100,VALID,-0.0849042,VALID,19.9399,VALID,139,VALID,0,
2008-09-20, 02:57:00,VALID,917.268,VALID,0,VALID,100,VALID,-0.0509425,VALID,19.9399,VALID,139,VALID,0,
2008-09-20, 02:58:00,VALID,917.253,VALID,0,VALID,100,VALID,-0.0169808,VALID,19.9402,VALID,139,VALID,0,
2008-09-20, 02:59:00,VALID,917.241,VALID,0,VALID,100,VALID,-0.0679233,VALID,19.9299,VALID,139,VALID,0,
2008-09-20, 03:00:00,VALID,917.234,VALID,0,VALID,100,VALID,-0.0679233,VALID,19.9299,VALID,139,VALID,0,
2008-09-20, 03:01:00,VALID,917.226,VALID,0,VALID,100,VALID,-0.0509425,VALID,19.9362,VALID,139,VALID,0,
2008-09-20, 03:02:00,VALID,917.232,VALID,0,VALID,100,VALID,-0.0339617,VALID,19.9656,VALID,139,VALID,0,
2008-09-20, 03:03:00,VALID,917.229,VALID,0,VALID,100,VALID,0,VALID,19.9656,VALID,139,VALID,0,
2008-09-20, 03:04:00,VALID,917.23,VALID,0,VALID,100,VALID,-0.0339617,VALID,19.9491,VALID,139,VALID,0,
2008-09-20, 03:05:00,VALID,917.239,VALID,0,VALID,100,VALID,0,VALID,19.9394,VALID,139,VALID,0,
2008-09-20, 03:06:00,VALID,917.234,VALID,0,VALID,100,VALID,-0.0509425,VALID,19.9297,VALID,139,VALID,0,
2008-09-20, 03:07:00,VALID,917.227,VALID,0,VALID,100,VALID,-0.0679233,VALID,19.9132,VALID,139,VALID,0,
2008-09-20, 03:08:00,VALID,917.235,VALID,0,VALID,100,VALID,-0.0509425,VALID,19.9005,VALID,139,VALID,0,
2008-09-20, 03:09:00,VALID,917.234,VALID,0,VALID,100,VALID,-0.0339617,VALID,19.894,VALID,139,VALID,0,
2008-09-20, 03:10:00,VALID,917.246,VALID,0,VALID,100,VALID,-0.0339617,VALID,19.9067,VALID,139,VALID,0,
2008-09-20, 03:11:00,VALID,917.247,VALID,0,VALID,100,VALID,-0.0169808,VALID,19.9232,VALID,139,VALID,0,
2008-09-20, 03:12:00,VALID,917.237,VALID,0,VALID,100,VALID,-0.0509425,VALID,19.9329,VALID,139,VALID,0,
2008-09-20, 03:13:00,VALID,917.241,VALID,0,VALID,100,VALID,-0.0169808,VALID,19.9459,VALID,139,VALID,0,
2008-09-20, 03:14:00,VALID,917.231,VALID,0,VALID,100,VALID,-0.0679233,VALID,19.9751,VALID,139,VALID,0,
2008-09-20, 03:15:00,VALID,917.204,VALID,0,VALID,100,VALID,-0.0509425,VALID,19.9978,VALID,139,VALID,0,
2008-09-20, 03:16:00,VALID,917.186,VALID,0,VALID,100,VALID,-0.0679233,VALID,20.014,VALID,139,VALID,0,
2008-09-20, 03:17:00,VALID,917.175,VALID,0,VALID,100,VALID,-0.0169808,VALID,20.014,VALID,139,VALID,0,
2008-09-20, 03:18:00,VALID,917.172,VALID,0,VALID,100,VALID,-0.0339617,VALID,20.0268,VALID,139,VALID,0,
2008-09-20, 03:19:00,VALID,917.176,VALID,0,VALID,100,VALID,-0.0169808,VALID,20.0335,VALID,139,VALID,0,
2008-09-20, 03:20:00,VALID,917.19,VALID,0,VALID,100,VALID,-0.0339617,VALID,20.0427,VALID,139,VALID,0,
2008-09-20, 03:21:00,VALID,917.195,VALID,0,VALID,100,VALID,0.0169808,VALID,20.0595,VALID,139,VALID,0,
2008-09-20, 03:22:00,VALID,917.197,VALID,0,VALID,100,VALID,0.0339617,VALID,20.062,VALID,139,VALID,0,
2008-09-20, 03:23:00,VALID,917.194,VALID,0,VALID,100,VALID,-0.0169808,VALID,20.0789,VALID,139,VALID,0,
2008-09-20, 03:24:00,VALID,917.183,VALID,0,VALID,100,VALID,0.0169808,VALID,20.0655,VALID,140,VALID,0,
2008-09-20, 03:25:00,VALID,917.18,VALID,0,VALID,100,VALID,0.0339617,VALID,20.0722,VALID,172,VALID,0.325107,
2008-09-20, 03:26:00,VALID,917.167,VALID,0,VALID,100,VALID,0,VALID,20.0557,VALID,218,VALID,0.0942827,
2008-09-20, 03:27:00,VALID,917.169,VALID,0,VALID,100,VALID,0.0169808,VALID,20.0328,VALID,218,VALID,0.0775923,
2008-09-20, 03:28:00,VALID,917.161,VALID,0,VALID,100,VALID,0,VALID,20.016,VALID,215,VALID,0.0596955,
2008-09-20, 03:29:00,VALID,917.168,VALID,0,VALID,100,VALID,0,VALID,20.033,VALID,212,VALID,0.0433408,
2008-09-20, 03:30:00,VALID,917.167,VALID,0,VALID,100,VALID,0,VALID,20.0298,VALID,221,VALID,0,
2008-09-20, 03:31:00,VALID,917.158,VALID,0,VALID,100,VALID,0,VALID,20.03,VALID,225,VALID,0.535247,
2008-09-20, 03:32:00,VALID,917.156,VALID,0,VALID,100,VALID,0,VALID,20.02,VALID,201,VALID,0.476926,
2008-09-20, 03:33:00,VALID,917.148,VALID,0,VALID,100,VALID,0.0169808,VALID,20.0168,VALID,219,VALID,0.112909,
2008-09-20, 03:34:00,VALID,917.152,VALID,0,VALID,100,VALID,-0.0169808,VALID,20.0205,VALID,220,VALID,0.0337271,
2008-09-20, 03:35:00,VALID,917.121,VALID,0,VALID,100,VALID,0,VALID,20.0135,VALID,220,VALID,0,
2008-09-20, 03:36:00,VALID,917.108,VALID,0,VALID,100,VALID,0,VALID,20.0235,VALID,220,VALID,0,
2008-09-20, 03:37:00,VALID,917.101,VALID,0,VALID,100,VALID,0,VALID,20.027,VALID,220,VALID,0,
2008-09-20, 03:38:00,VALID,917.077,VALID,0,VALID,100,VALID,0.0169808,VALID,20.0265,VALID,220,VALID,0,
2008-09-20, 03:39:00,VALID,917.064,VALID,0,VALID,100,VALID,0.0169808,VALID,20.0268,VALID,220,VALID,0,
2008-09-20, 03:40:00,VALID,917.023,VALID,0,VALID,100,VALID,-0.0169808,VALID,20.03,VALID,220,VALID,0,
2008-09-20, 03:41:00,VALID,916.99,VALID,0,VALID,100,VALID,-0.0169808,VALID,20.0333,VALID,220,VALID,0.0177083,
2008-09-20, 03:42:00,VALID,916.959,VALID,0,VALID,100,VALID,0,VALID,20.0238,VALID,220,VALID,0.783854,
2008-09-20, 03:43:00,VALID,916.947,VALID,0,VALID,100,VALID,0.0169808,VALID,19.9876,VALID,220,VALID,0.760356,
2008-09-20, 03:44:00,VALID,916.938,VALID,0,VALID,100,VALID,0,VALID,19.9392,VALID,220,VALID,0.670436,
2008-09-20, 03:45:00,VALID,916.957,VALID,0,VALID,100,VALID,-0.0169808,VALID,19.9002,VALID,220,VALID,0.521532,
2008-09-20, 03:46:00,VALID,916.976,VALID,0,VALID,100,VALID,0,VALID,19.8837,VALID,179,VALID,0.455469,
2008-09-20, 03:47:00,VALID,917.003,VALID,0,VALID,100,VALID,0,VALID,19.8381,VALID,96,VALID,0.596467,
2008-09-20, 03:48:00,VALID,917.029,VALID,0,VALID,100,VALID,-0.0169808,VALID,19.7867,VALID,86,VALID,0.605769,
2008-09-20, 03:49:00,VALID,917.054,VALID,0,VALID,100,VALID,-0.0509425,VALID,19.729,VALID,81,VALID,0.606399,
2008-09-20, 03:50:00,VALID,917.061,VALID,0,VALID,100,VALID,-0.118866,VALID,19.6838,VALID,81,VALID,0.439236,